GW4718 Weather Reports


time (UTC)temp
C
wind
direction
speed
KPH
gust
KPH
rain 1hr
cm
rain 24hr
cm
rain mn
cm
humidity
%
barometer
mb
20260906100906 18 18 0.0 0.0 0.00 0.00 0.00 99 1017.7
20260906100405 18 22 0.0 0.0 0.00 0.00 0.00 99 1018.0
20260906095900 18 30 0.0 0.0 0.00 0.00 0.00 99 1017.9
20260906095356 18 23 0.0 0.0 0.00 0.00 0.00 99 1017.7
20260906094855 18 20 0.0 0.0 0.00 0.00 0.00 99 1017.7
20260906094351 18 25 0.0 0.0 0.00 0.00 0.00 99 1017.8
20260906093847 18 23 0.0 0.0 0.00 0.00 0.00 99 1017.6
20260906093343 18 13 0.0 0.0 0.00 0.00 0.00 99 1017.6
20260906092842 18 16 0.0 0.0 0.00 0.00 0.00 99 1017.7
20260906092337 18 15 0.0 0.0 0.00 0.00 0.00 99 1017.8
20260906091833 18 31 0.0 0.0 0.00 0.00 0.00 99 1017.6
20260906091329 18 31 0.0 0.0 0.00 0.00 0.00 99 1017.7
20260906090825 18 31 0.0 0.0 0.00 0.00 0.00 99 1017.6
20260906090324 18 17 0.0 0.0 0.00 0.00 0.00 99 1017.6
20260906085819 18 16 0.0 0.0 0.00 0.00 0.00 99 1017.5
20260906085317 18 16 0.0 0.0 0.00 0.00 0.00 99 1017.3
20260906084812 18 16 0.0 0.0 0.00 0.00 0.00 99 1017.5
20260906084312 18 15 0.0 0.0 0.00 0.00 0.00 99 1017.4
20260906083801 18 17 0.0 0.0 0.00 0.00 0.00 99 1017.3
20260906083256 18 20 0.0 0.0 0.00 0.00 0.00 99 1017.4
20260906082751 18 20 0.0 0.0 0.00 0.00 0.00 99 1017.5
20260906082246 18 19 0.0 0.0 0.00 0.00 0.00 99 1017.4
20260906081743 18 35 0.0 0.0 0.00 0.00 0.00 99 1017.4
20260906081237 18 40 0.0 0.0 0.00 0.00 0.00 99 1017.4
20260906080734 18 303 0.0 0.0 0.00 0.00 0.00 99 1017.4
20260906080230 18 302 0.0 0.0 0.00 0.00 0.00 99 1017.4
20260906075724 18 301 0.0 0.0 0.00 0.00 0.00 99 1017.4
20260906075223 18 300 0.0 0.0 0.00 0.00 0.00 99 1017.4
20260906074719 18 335 0.0 0.0 0.00 0.00 0.00 99 1017.3
20260906074213 18 335 0.0 0.0 0.00 0.00 0.00 99 1017.3
20260906073708 18 335 0.0 0.0 0.00 0.00 0.00 99 1017.2
20260906073203 18 335 0.0 0.0 0.00 0.00 0.00 99 1017.4
20260906072658 18 339 0.0 0.0 0.00 0.00 0.00 99 1017.5
20260906072154 18 354 0.0 0.0 0.00 0.00 0.00 99 1017.3
20260906071650 18 354 0.0 0.0 0.00 0.00 0.00 99 1017.2
20260906071149 18 3 0.0 0.0 0.00 0.00 0.00 99 1017.4
20260906070646 18 2 0.0 0.0 0.00 0.00 0.00 99 1017.3
20260906070142 18 356 0.0 0.0 0.00 0.00 0.00 99 1017.3
20260906065641 19 0 0.0 0.0 0.00 0.00 0.00 99 1017.4
20260906065136 19 2 0.0 0.0 0.00 0.00 0.00 99 1017.5
20260906064632 19 2 0.0 0.0 0.00 0.00 0.00 99 1017.3
20260906064126 19 2 0.0 0.0 0.00 0.00 0.00 99 1017.4
20260906063622 19 352 0.0 0.0 0.00 0.00 0.00 99 1017.3
20260906063117 19 273 0.0 0.0 0.00 0.00 0.00 99 1017.4
20260906062613 19 271 0.0 0.0 0.00 0.00 0.00 99 1017.4
20260906062112 19 271 0.0 0.0 0.00 0.00 0.00 99 1017.5
20260906061608 19 271 0.0 0.0 0.00 0.00 0.00 99 1017.5
20260906061108 19 275 0.0 0.0 0.00 0.00 0.00 99 1017.6
20260906060604 19 275 0.0 0.0 0.00 0.00 0.00 99 1017.4
20260906055557 19 273 0.0 0.0 0.00 0.00 0.00 99 1017.5
20260906055052 19 49 0.0 0.0 0.00 0.00 0.00 99 1017.7
20260906054547 19 47 0.0 0.0 0.00 0.00 0.00 99 1017.6
20260906054042 19 351 0.0 0.0 0.00 0.00 0.00 99 1017.6
20260906053538 19 350 0.0 0.0 0.00 0.00 0.00 99 1017.4
20260906053034 19 265 0.0 0.0 0.00 0.00 0.00 99 1017.5
20260906052529 19 154 0.0 0.0 0.00 0.00 0.00 99 1017.3
20260906052026 19 154 0.0 0.0 0.00 0.00 0.00 99 1017.2
20260906051522 19 154 0.0 0.0 0.00 0.00 0.00 99 1017.5
20260906051017 19 156 0.0 0.0 0.00 0.00 0.00 99 1017.4
20260906050512 19 156 0.0 0.0 0.00 0.00 0.00 99 1017.6
20260906050007 19 156 0.0 0.0 0.00 0.00 0.00 99 1017.5
20260906045504 19 156 0.0 0.0 0.00 0.00 0.00 99 1017.4
20260906044955 19 156 0.0 0.0 0.00 0.00 0.00 99 1017.4
20260906044450 19 162 0.0 0.0 0.00 0.00 0.00 99 1017.5
20260906043946 19 162 0.0 0.0 0.00 0.00 0.00 99 1017.6
20260906043441 19 162 0.0 0.0 0.00 0.00 0.00 99 1017.5
20260906042937 19 149 0.0 0.0 0.00 0.00 0.00 99 1017.5
20260906042436 19 132 0.0 0.0 0.00 0.00 0.00 99 1017.6
20260906041930 19 143 0.0 0.0 0.00 0.00 0.00 99 1017.7
20260906041427 19 164 0.0 0.0 0.00 0.00 0.00 99 1017.4
20260906040927 19 181 0.0 0.0 0.00 0.00 0.00 99 1017.5
20260906040422 19 181 0.0 0.0 0.00 0.00 0.00 99 1017.4
20260906035917 19 151 0.0 0.0 0.00 1.32 1.32 99 1017.5
20260906035412 20 140 0.0 0.0 0.00 1.32 1.32 99 1017.7
20260906034908 20 140 0.0 0.0 0.00 1.32 1.32 99 1017.7
20260906034402 20 151 0.0 0.0 0.00 1.32 1.32 99 1017.8
20260906033858 20 181 0.0 0.0 0.00 1.32 1.32 99 1017.9
20260906033357 20 181 0.0 0.0 0.00 1.32 1.32 99 1017.8
20260906032854 20 181 0.0 0.0 0.00 1.32 1.32 99 1017.9
20260906032350 20 245 0.0 0.0 0.00 1.32 1.32 99 1017.9
20260906031844 20 171 0.0 0.0 0.00 1.32 1.32 99 1018.0
20260906031340 20 148 0.0 0.0 0.00 1.32 1.32 99 1017.8
20260906030840 20 148 0.0 0.0 0.00 1.32 1.32 99 1017.9
20260906030335 20 148 0.0 0.0 0.00 1.32 1.32 99 1017.9
20260906025834 20 148 0.0 0.0 0.00 1.32 1.32 99 1017.9
20260906025329 20 148 0.0 0.0 0.00 1.32 1.32 99 1018.1
20260906024827 20 148 0.0 0.0 0.00 1.32 1.32 99 1018.2
20260906024326 20 148 0.0 0.0 0.00 1.32 1.32 99 1018.2
20260906023823 20 187 0.0 0.0 0.00 1.32 1.32 99 1018.2
20260906023318 20 224 0.0 0.0 0.00 1.32 1.32 99 1018.0
20260906022813 20 224 0.0 0.0 0.00 1.32 1.32 99 1017.8
20260906022308 20 208 0.0 0.0 0.00 1.32 1.32 99 1017.9
20260906021804 20 200 0.0 0.0 0.00 1.32 1.32 99 1018.1
20260906021303 20 139 0.0 0.0 0.00 1.32 1.32 99 1017.9
20260906020758 20 98 0.0 0.0 0.00 1.32 1.32 99 1017.9
20260906020253 20 65 0.0 0.0 0.00 1.32 1.32 99 1017.8
20260906015752 20 47 0.0 0.0 0.00 1.32 1.32 99 1017.7
20260906015250 20 329 0.0 0.0 0.00 1.32 1.32 99 1017.6
20260906014745 20 63 0.0 0.0 0.00 1.32 1.32 99 1017.4
20260906014241 20 273 0.0 0.0 0.00 1.32 1.32 99 1017.5
20260906013738 20 260 0.0 0.0 0.18 1.32 1.32 99 1017.3
20260906013237 20 193 0.0 3.2 0.18 1.32 1.32 99 1017.0
20260906012732 20 243 0.0 0.0 0.30 1.30 1.30 99 1017.0
20260906012228 20 141 0.0 0.0 0.30 1.30 1.30 99 1017.0
20260906011723 20 48 0.0 0.0 0.00 1.24 1.24 99 1017.3
20260906011222 20 222 0.0 0.0 0.00 1.24 1.24 99 1017.2
20260906010719 20 222 0.0 0.0 0.00 1.24 1.24 99 1017.1
20260906010215 20 190 0.0 0.0 0.00 1.24 1.24 99 1017.0
20260906005715 20 214 0.0 0.0 0.00 1.24 1.24 99 1016.7
20260906005214 20 217 0.0 0.0 0.00 1.24 1.24 99 1017.0
20260906004713 20 121 0.0 0.0 0.00 1.24 1.24 99 1016.7
20260906004208 20 114 0.0 0.0 0.00 1.24 1.24 99 1016.9
20260906003703 20 117 0.0 0.0 0.00 1.24 1.24 99 1016.8
20260906003159 20 117 0.0 0.0 0.00 1.24 1.24 99 1016.8
20260906002659 20 108 0.0 0.0 0.00 1.24 1.24 99 1016.8
20260906002154 20 107 0.0 0.0 0.00 1.24 1.24 99 1016.8
20260906001649 20 106 0.0 0.0 0.00 1.24 1.24 99 1016.5
20260906001143 20 130 0.0 0.0 0.00 1.24 1.24 99 1016.8
20260906000639 20 136 0.0 0.0 0.00 1.24 1.24 99 1016.9
20260906000134 20 137 0.0 0.0 0.00 1.24 1.24 99 1016.3
20260905235633 20 136 0.0 0.0 0.00 1.24 1.24 99 1016.5
20260905235128 20 131 0.0 0.0 0.00 1.24 1.24 99 1016.7
20260905234624 20 132 0.0 0.0 0.00 1.24 1.24 99 1016.7
20260905234119 20 179 0.0 1.6 0.00 1.24 1.24 99 1016.7
20260905233614 20 160 0.0 0.0 0.00 1.24 1.24 99 1016.7
20260905233113 20 115 1.6 3.2 0.00 1.24 1.24 99 1016.4
20260905232609 20 99 0.0 1.6 0.00 1.24 1.24 99 1016.8
20260905232105 20 66 0.0 0.0 0.00 1.24 1.24 99 1016.8
20260905231559 20 11 0.0 0.0 0.00 1.24 1.24 99 1016.9
20260905231056 20 19 0.0 3.2 0.61 1.24 1.24 99 1016.8
20260905230556 21 119 1.6 4.8 1.68 1.22 1.22 98 1016.7
20260905230054 21 132 1.6 4.8 1.55 1.12 1.12 96 1016.8
20260905225549 21 8 1.6 4.8 0.79 0.94 0.94 92 1016.7
20260905225044 22 336 0.0 1.6 0.48 0.84 0.84 92 1016.5
20260905224543 22 81 6.4 6.4 0.18 0.79 0.79 89 1016.5
20260905224043 23 41 0.0 0.0 0.00 0.76 0.76 83 1016.2
20260905223541 24 76 0.0 0.0 0.00 0.76 0.76 83 1016.1
20260905223037 24 74 0.0 0.0 0.00 0.76 0.76 79 1016.1
20260905222536 25 122 0.0 1.6 0.00 0.76 0.76 79 1016.2
20260905222032 25 52 0.0 3.2 0.00 0.76 0.76 76 1016.0
20260905221528 25 66 0.0 0.0 0.00 0.76 0.76 77 1016.1
20260905221024 26 102 0.0 1.6 0.00 0.76 0.76 75 1015.9
20260905220519 26 126 0.0 1.6 0.00 0.76 0.76 68 1016.0
20260905220015 26 230 0.0 1.6 0.00 0.76 0.76 68 1015.9
20260905215509 26 271 0.0 1.6 0.00 0.76 0.76 67 1015.8
20260905215006 26 333 3.2 3.2 0.00 0.76 0.76 69 1015.9
20260905214501 26 175 1.6 3.2 0.00 0.76 0.76 66 1015.8
20260905214001 26 309 1.6 3.2 0.00 0.76 0.76 66 1015.7
20260905213457 26 226 1.6 6.4 0.00 0.76 0.76 70 1015.9
20260905212953 26 243 1.6 4.8 0.00 0.76 0.76 70 1015.8
20260905212452 26 217 3.2 3.2 0.00 0.76 0.76 70 1015.8
20260905211952 27 195 1.6 11.3 0.00 0.76 0.76 69 1015.8
20260905211447 28 243 6.4 9.7 0.00 0.76 0.76 64 1015.5
20260905210943 27 120 0.0 1.6 0.00 0.76 0.76 66 1015.7
20260905210438 27 257 4.8 4.8 0.00 0.76 0.76 66 1015.4
20260905205938 27 162 0.0 1.6 0.00 0.76 0.76 64 1015.5
20260905205432 27 174 3.2 4.8 0.00 0.76 0.76 62 1015.6
20260905204931 27 37 0.0 3.2 0.00 0.76 0.76 66 1015.6
20260905204427 26 58 0.0 4.8 0.00 0.76 0.76 67 1015.5
20260905203926 26 84 8.0 11.3 0.00 0.76 0.76 65 1015.7
20260905203422 27 13 1.6 3.2 0.00 0.76 0.76 65 1015.7
20260905202917 26 101 12.9 20.9 0.00 0.76 0.76 65 1015.7
20260905202413 27 335 0.0 4.8 0.00 0.76 0.76 64 1015.6
20260905201908 27 198 0.0 3.2 0.00 0.76 0.76 65 1015.8
20260905201403 28 149 3.2 3.2 0.00 0.76 0.76 66 1015.7
20260905200903 27 237 6.4 6.4 0.00 0.76 0.76 68 1015.7
20260905200359 27 225 0.0 3.2 0.00 0.76 0.76 66 1015.6
20260905195857 27 77 3.2 6.4 0.00 0.76 0.76 68 1015.7
20260905195352 27 50 3.2 4.8 0.00 0.76 0.76 68 1015.7
20260905194848 27 335 6.4 11.3 0.00 0.76 0.76 69 1015.9
20260905194347 28 191 0.0 6.4 0.00 0.76 0.76 66 1015.7
20260905193842 27 257 3.2 9.7 0.00 0.76 0.76 63 1015.7
20260905193337 27 191 4.8 6.4 0.00 0.76 0.76 61 1015.9
20260905192832 27 249 3.2 6.4 0.00 0.76 0.76 66 1015.7
20260905192328 28 95 3.2 3.2 0.00 0.76 0.76 68 1016.0
20260905191827 27 278 1.6 6.4 0.00 0.76 0.76 67 1016.0
20260905191326 27 220 3.2 4.8 0.00 0.76 0.76 65 1016.1
20260905190824 27 14 1.6 4.8 0.00 0.76 0.76 66 1016.3
20260905190319 26 354 6.4 11.3 0.00 0.76 0.76 67 1016.3
20260905185818 26 16 0.0 6.4 0.00 0.76 0.76 70 1016.1
20260905185313 26 9 3.2 6.4 0.00 0.76 0.76 72 1016.0
20260905184807 26 3 1.6 11.3 0.00 0.76 0.76 74 1016.3
20260905184306 26 25 1.6 3.2 0.00 0.76 0.76 75 1016.5
20260905183804 25 49 4.8 6.4 0.00 0.76 0.76 76 1016.7
20260905183300 25 59 4.8 9.7 0.00 0.76 0.76 76 1016.7
20260905182759 24 314 0.0 9.7 0.00 0.76 0.76 75 1017.0
20260905182259 25 38 6.4 6.4 0.00 0.76 0.76 78 1016.9
20260905181754 25 144 3.2 4.8 0.00 0.76 0.76 74 1017.0
20260905181248 25 240 11.3 12.9 0.00 0.76 0.76 72 1017.1
20260905180743 25 141 3.2 6.4 0.00 0.76 0.76 68 1017.2
20260905180238 26 297 3.2 4.8 0.00 0.76 0.76 70 1017.2
20260905175732 26 11 0.0 3.2 0.00 0.76 0.76 71 1017.1
20260905175227 26 330 1.6 11.3 0.00 0.76 0.76 69 1017.0
20260905174722 26 22 3.2 9.7 0.00 0.76 0.76 70 1016.9
20260905174218 26 16 1.6 6.4 0.00 0.76 0.76 71 1016.7
20260905173714 25 27 6.4 11.3 0.00 0.76 0.76 73 1016.8
20260905173209 25 67 24.1 25.7 0.00 0.76 0.76 74 1017.0
20260905172708 25 25 0.0 3.2 0.00 0.76 0.76 76 1016.8
20260905172202 25 2 1.6 3.2 0.00 0.76 0.76 78 1016.8
20260905171658 25 107 1.6 4.8 0.00 0.76 0.76 76 1016.8
20260905171154 24 130 0.0 0.0 0.00 0.76 0.76 80 1016.7
20260905170652 23 62 4.8 4.8 0.00 0.76 0.76 85 1017.0
20260905170146 23 52 3.2 4.8 0.00 0.76 0.76 89 1016.8
20260905165646 23 66 1.6 3.2 0.00 0.76 0.76 88 1016.9
20260905165141 23 23 1.6 6.4 0.00 0.76 0.76 84 1017.2
20260905164636 22 25 3.2 14.5 0.00 0.76 0.76 91 1017.1
20260905164135 22 297 1.6 1.6 0.00 0.76 0.76 92 1017.4
20260905163632 22 42 3.2 4.8 0.00 0.76 0.76 93 1017.3
20260905163128 22 21 0.0 1.6 0.00 0.76 0.76 93 1017.3
20260905162624 22 13 0.0 0.0 0.00 0.76 0.76 95 1017.2
20260905162123 21 14 0.0 0.0 0.00 0.76 0.76 96 1017.1
20260905161618 21 273 4.8 6.4 0.00 0.76 0.76 96 1017.4
20260905161116 21 271 3.2 4.8 0.00 0.76 0.76 96 1017.1
20260905160615 21 211 3.2 9.7 0.00 0.76 0.76 97 1017.1
20260905160114 21 223 3.2 3.2 0.00 0.76 0.76 99 1017.0
20260905155610 21 263 3.2 4.8 0.00 0.76 0.76 99 1017.0
20260905155108 21 233 3.2 4.8 0.00 0.76 0.76 99 1017.1
20260905154602 21 228 0.0 3.2 0.00 0.76 0.76 99 1017.2
20260905154058 20 275 0.0 1.6 0.00 0.76 0.76 98 1017.5
20260905153554 20 216 1.6 3.2 0.13 0.76 0.76 99 1017.8
20260905153054 20 259 1.6 3.2 0.13 0.76 0.76 99 1017.8
20260905152549 20 203 3.2 4.8 0.00 0.74 0.74 99 1018.1
20260905152044 20 256 1.6 4.8 0.00 0.74 0.74 99 1018.3
20260905151539 20 267 0.0 0.0 0.00 0.74 0.74 99 1018.5
20260905151035 20 139 1.6 3.2 0.00 0.74 0.74 99 1018.3
20260905150530 20 255 0.0 3.2 0.18 0.74 0.74 99 1018.7
20260905150027 20 282 0.0 3.2 0.18 0.74 0.74 99 1018.5
20260905145521 20 239 0.0 0.0 0.00 0.71 0.71 99 1018.6
20260905145020 19 177 0.0 0.0 0.18 0.71 0.71 99 1018.8
20260905144515 19 150 0.0 0.0 0.30 0.71 0.71 99 1018.9
20260905144014 20 197 0.0 0.0 0.30 0.69 0.69 99 1018.8
20260905143513 20 244 0.0 1.6 0.30 0.66 0.66 98 1019.1
20260905143009 20 78 4.8 6.4 0.30 0.64 0.64 93 1018.8
20260905142507 20 173 1.6 9.7 0.48 0.61 0.61 93 1018.9
20260905142003 20 217 0.0 11.3 0.43 0.58 0.58 94 1019.4
20260905141457 21 198 6.4 9.7 0.30 0.53 0.53 91 1019.5
20260905140954 21 138 6.4 11.3 0.48 0.51 0.51 90 1019.6
20260905140448 21 241 4.8 22.5 0.43 0.48 0.48 88 1019.7
20260905135947 21 221 8.0 11.3 0.48 0.43 0.43 90 1019.8
20260905135443 21 125 3.2 11.3 0.66 0.41 0.41 94 1019.7
20260905134938 21 199 6.4 14.5 0.43 0.36 0.36 94 1019.3
20260905134438 21 104 3.2 9.7 0.43 0.30 0.30 95 1019.2
20260905133937 21 255 0.0 4.8 0.48 0.28 0.28 97 1019.4
20260905133432 22 222 0.0 4.8 0.61 0.23 0.23 93 1019.1
20260905132931 22 206 9.7 20.9 1.07 0.20 0.20 91 1018.9
20260905132426 21 161 6.4 17.7 0.66 0.13 0.13 95 1018.7
20260905131921 21 188 3.2 4.8 0.00 0.03 0.03 99 1018.3
20260905131417 21 301 0.0 4.8 0.00 0.03 0.03 98 1018.0
20260905130912 21 176 0.0 1.6 0.00 0.03 0.03 99 1017.6
20260905130412 21 78 3.2 4.8 0.00 0.03 0.03 99 1017.3
20260905125906 21 65 0.0 0.0 0.00 0.03 0.03 99 1017.5
20260905125401 21 108 3.2 4.8 0.00 0.03 0.03 99 1017.2
20260905124857 21 321 3.2 3.2 0.00 0.03 0.03 98 1017.0
20260905124353 21 85 4.8 4.8 0.00 0.03 0.03 99 1016.9
20260905123853 21 312 0.0 1.6 0.00 0.03 0.03 99 1016.9
20260905123350 21 213 1.6 3.2 0.00 0.03 0.03 99 1016.8
20260905122850 21 57 1.6 9.7 0.00 0.03 0.03 99 1016.9
20260905122344 21 43 6.4 9.7 0.00 0.03 0.03 99 1016.9
20260905121839 20 7 0.0 0.0 0.00 0.03 0.03 99 1017.1
20260905121336 20 243 0.0 1.6 0.00 0.03 0.03 99 1017.0
20260905120834 20 71 0.0 0.0 0.00 0.03 0.03 99 1016.9
20260905120329 20 279 0.0 4.8 0.00 0.03 0.03 99 1017.0
20260905115824 20 48 0.0 0.0 0.00 0.03 0.03 99 1017.1
20260905115324 20 50 0.0 4.8 0.00 0.03 0.03 99 1017.0
20260905114823 20 306 1.6 1.6 0.00 0.03 0.03 99 1017.0
20260905114322 20 102 1.6 3.2 0.00 0.03 0.03 99 1017.0
20260905113821 19 310 0.0 0.0 0.00 0.03 0.03 99 1016.8
20260905113317 19 116 0.0 3.2 0.00 0.03 0.03 99 1016.8
20260905112813 19 151 0.0 0.0 0.13 0.03 0.03 99 1016.9
20260905112307 19 18 0.0 0.0 0.13 0.03 0.03 99 1017.0
20260905111802 19 302 0.0 0.0 0.00 0.00 0.00 99 1016.8
20260905111257 18 70 0.0 0.0 0.00 0.00 0.00 99 1016.7
20260905110756 18 28 0.0 0.0 0.00 0.00 0.00 99 1016.7
20260905110250 18 76 0.0 0.0 0.00 0.00 0.00 99 1016.7
20260905105746 18 72 0.0 0.0 0.00 0.00 0.00 99 1016.7
20260905105245 17 93 0.0 0.0 0.00 0.00 0.00 99 1016.7
20260905104739 18 326 0.0 0.0 0.00 0.00 0.00 99 1016.8
20260905104236 17 60 0.0 0.0 0.00 0.00 0.00 99 1016.7
20260905103730 17 245 0.0 0.0 0.00 0.00 0.00 99 1016.7
20260905103226 17 301 0.0 0.0 0.00 0.00 0.00 99 1017.0
20260905102721 17 88 0.0 0.0 0.00 0.00 0.00 99 1017.0
20260905102218 17 110 0.0 0.0 0.00 0.00 0.00 99 1017.2
20260905101717 17 92 0.0 0.0 0.00 0.00 0.00 99 1017.2